Weather History for KFWC - January, 2014

Change the Weather History Date:

Thursday, January 30, 2014

  Actual Average (KMVN) Record (KMVN)
Temperature  
Mean Temperature 30 °F -  
Max Temperature 41 °F 39 °F 57 °F (2012)
Min Temperature 19 °F 24 °F 1 °F (2004)
Degree Days  
Heating Degree Days 35    
Moisture  
Dew Point 10 °F    
Average Humidity 44    
Maximum Humidity 63    
Minimum Humidity 26    
Precipitation  
Precipitation 0.00 in - - ()
Sea Level Pressure  
Sea Level Pressure 30.04 in    
Wind  
Wind Speed 12 mph (South)    
Max Wind Speed 26 mph    
Max Gust Speed 36 mph    
Visibility 10 miles    
Events      
Averages and records for this station are not official NWS values.
T = Trace of Precipitation, MM = Missing Value Source: NWS Daily Summary

Daily Weather History Graph

Daily Weather History Graph

Search for Another Location

Airport or City:

Trip Planner

Search our weather history database for the weather conditions in past years. The results will help you decide how hot, cold, wet, or windy it might be!

Date:

Astronomy

Jan. 30, 2014 Rise Set
Actual Time 7:00 AM CST 5:13 PM CST
Civil Twilight 6:32 AM CST 5:41 PM CST
Nautical Twilight 6:00 AM CST 6:13 PM CST
Astronomical Twilight 5:29 AM CST 6:44 PM CST
Moon 6:26 AM CST (1/30) 5:24 PM CST (1/30)
Length of Visible Light 11h 09m
Length of Day
10h 13m
Waning Crescent, 0% of the Moon is Illuminated
Jan 30
Waning Crescent
Jan 30
New
Feb 6
First Quarter
Feb 14
Full
Feb 22
Last Quarter

Hourly Weather History & Observations

Time (CST) Temp. Windchill Dew Point Humidity Pressure Visibility Wind Dir Wind Speed Gust Speed Precip Events Conditions
12:15 AM 19.4 °F 9.5 °F 8.6 °F 63% 30.21 in 10.0 mi South 8.1 mph - N/A   Clear
12:35 AM 19.4 °F 8.6 °F 8.6 °F 63% 30.21 in 10.0 mi South 9.2 mph - N/A   Clear
12:55 AM 19.4 °F 9.5 °F 8.6 °F 63% 30.20 in 10.0 mi South 8.1 mph - N/A   Clear
1:15 AM 19.4 °F 11.5 °F 8.6 °F 63% 30.20 in 10.0 mi South 5.8 mph - N/A   Clear
1:35 AM 19.4 °F 10.4 °F 8.6 °F 63% 30.19 in 10.0 mi South 6.9 mph - N/A   Clear
1:55 AM 19.4 °F 9.5 °F 8.6 °F 63% 30.18 in 10.0 mi South 8.1 mph - N/A   Clear
2:15 AM 19.4 °F 9.5 °F 8.6 °F 63% 30.18 in 10.0 mi South 8.1 mph - N/A   Clear
2:35 AM 19.4 °F 7.9 °F 8.6 °F 63% 30.17 in 10.0 mi South 10.4 mph - N/A   Clear
2:55 AM 19.4 °F 9.5 °F 6.8 °F 58% 30.17 in 10.0 mi South 8.1 mph - N/A   Clear
3:15 AM 19.4 °F 8.6 °F 6.8 °F 58% 30.16 in 10.0 mi South 9.2 mph - N/A   Clear
3:35 AM 21.2 °F 10.1 °F 8.6 °F 58% 30.15 in 10.0 mi South 10.4 mph - N/A   Clear
3:55 AM 19.4 °F 8.6 °F 8.6 °F 63% 30.16 in 10.0 mi South 9.2 mph - N/A   Clear
4:15 AM 19.4 °F 9.5 °F 8.6 °F 63% 30.15 in 10.0 mi South 8.1 mph - N/A   Clear
4:35 AM 19.4 °F 7.2 °F 8.6 °F 63% 30.16 in 10.0 mi South 11.5 mph - N/A   Clear
4:55 AM 19.4 °F 10.4 °F 8.6 °F 63% 30.16 in 10.0 mi South 6.9 mph - N/A   Clear
5:15 AM 21.2 °F 9.5 °F 8.6 °F 58% 30.14 in 10.0 mi South 11.5 mph 16.1 mph N/A   Clear
5:35 AM 21.2 °F 8.9 °F 6.8 °F 54% 30.14 in 10.0 mi South 12.7 mph - N/A   Clear
5:55 AM 21.2 °F 8.9 °F 6.8 °F 54% 30.13 in 10.0 mi South 12.7 mph 18.4 mph N/A   Clear
6:15 AM 21.2 °F 9.5 °F 8.6 °F 58% 30.13 in 10.0 mi SSE 11.5 mph - N/A   Clear
6:35 AM 21.2 °F 10.1 °F 8.6 °F 58% 30.14 in 10.0 mi South 10.4 mph - N/A   Clear
6:55 AM 21.2 °F 10.9 °F 8.6 °F 58% 30.15 in 10.0 mi South 9.2 mph - N/A   Clear
7:15 AM 21.2 °F 10.9 °F 8.6 °F 58% 30.14 in 10.0 mi South 9.2 mph - N/A   Clear
7:35 AM 21.2 °F 8.3 °F 8.6 °F 58% 30.10 in 10.0 mi SSE 13.8 mph 18.4 mph N/A   Clear
7:55 AM 23.0 °F 11.7 °F 8.6 °F 54% 30.11 in 10.0 mi South 11.5 mph 17.3 mph N/A   Clear
8:15 AM 23.0 °F 11.1 °F 8.6 °F 54% 30.11 in 10.0 mi South 12.7 mph - N/A   Clear
8:35 AM 24.8 °F 12.9 °F 8.6 °F 50% 30.10 in 10.0 mi South 13.8 mph - N/A   Clear
8:55 AM 24.8 °F 12.4 °F 8.6 °F 50% 30.09 in 10.0 mi South 15.0 mph 23.0 mph N/A   Clear
9:15 AM 26.6 °F 13.4 °F 8.6 °F 47% 30.07 in 10.0 mi South 18.4 mph 26.5 mph N/A   Clear
9:35 AM 28.4 °F 15.8 °F 8.6 °F 43% 30.06 in 10.0 mi South 18.4 mph 25.3 mph N/A   Clear
9:55 AM 30.2 °F 18.1 °F 10.4 °F 44% 30.06 in 10.0 mi South 18.4 mph 23.0 mph N/A   Clear
10:15 AM 30.2 °F 16.2 °F 8.6 °F 40% 30.05 in 10.0 mi South 25.3 mph 29.9 mph N/A   Clear
10:35 AM 33.8 °F 21.3 °F 10.4 °F 38% 30.04 in 10.0 mi South 24.2 mph 28.8 mph N/A   Clear
10:55 AM 33.8 °F 21.9 °F 8.6 °F 35% 30.04 in 10.0 mi South 21.9 mph 33.4 mph N/A   Clear
11:15 AM 35.6 °F 24.0 °F 10.4 °F 35% 30.03 in 10.0 mi South 23.0 mph 29.9 mph N/A   Clear
11:35 AM 35.6 °F 24.2 °F 8.6 °F 33% 30.01 in 10.0 mi South 21.9 mph 27.6 mph N/A   Clear
11:55 AM 35.6 °F 24.8 °F 8.6 °F 33% 29.99 in 10.0 mi South 19.6 mph 29.9 mph N/A   Clear
12:15 PM 35.6 °F 24.8 °F 8.6 °F 33% 29.98 in 10.0 mi South 19.6 mph 26.5 mph N/A   Clear
12:35 PM 37.4 °F 25.6 °F 8.6 °F 30% 29.96 in 10.0 mi South 26.5 mph 34.5 mph N/A   Clear
12:55 PM 37.4 °F 25.6 °F 8.6 °F 30% 29.93 in 10.0 mi South 26.5 mph 33.4 mph N/A   Clear
1:15 PM 39.2 °F 28.0 °F 8.6 °F 28% 29.91 in 10.0 mi South 26.5 mph 35.7 mph N/A   Clear
1:35 PM 39.2 °F 29.8 °F 8.6 °F 28% 29.91 in 10.0 mi South 18.4 mph 32.2 mph N/A   Clear
1:55 PM 39.2 °F 29.3 °F 10.4 °F 31% 29.91 in 10.0 mi South 20.7 mph 26.5 mph N/A   Clear
2:15 PM 39.2 °F 29.3 °F 8.6 °F 28% 29.92 in 10.0 mi SSW 20.7 mph 29.9 mph N/A   Clear
2:35 PM 41.0 °F 31.1 °F 8.6 °F 26% 29.91 in 10.0 mi South 23.0 mph 32.2 mph N/A   Clear
2:55 PM 39.2 °F 29.0 °F 8.6 °F 28% 29.89 in 10.0 mi South 21.9 mph 34.5 mph N/A   Clear
3:15 PM 39.2 °F 28.7 °F 8.6 °F 28% 29.89 in 10.0 mi South 23.0 mph 28.8 mph N/A   Clear
3:35 PM 39.2 °F 29.6 °F 8.6 °F 28% 29.90 in 10.0 mi SSW 19.6 mph 31.1 mph N/A   Clear
3:55 PM 39.2 °F 29.6 °F 8.6 °F 28% 29.91 in 10.0 mi SSW 19.6 mph 26.5 mph N/A   Clear
4:15 PM 39.2 °F 30.5 °F 8.6 °F 28% 29.91 in 10.0 mi SSW 16.1 mph 25.3 mph N/A   Clear
4:35 PM 39.2 °F 31.2 °F 8.6 °F 28% 29.93 in 10.0 mi SSW 13.8 mph 20.7 mph N/A   Clear
4:55 PM 37.4 °F 30.3 °F 10.4 °F 33% 29.93 in 10.0 mi SSW 10.4 mph - N/A   Clear
5:15 PM 37.4 °F 30.8 °F 10.4 °F 33% 29.94 in 10.0 mi SSW 9.2 mph - N/A   Clear
5:35 PM 39.2 °F 32.0 °F 8.6 °F 28% 29.95 in 10.0 mi SSW 11.5 mph 21.9 mph N/A   Scattered Clouds
5:55 PM 39.2 °F 32.5 °F 8.6 °F 28% 29.95 in 10.0 mi SSW 10.4 mph 17.3 mph N/A   Scattered Clouds
6:15 PM 37.4 °F 30.8 °F 8.6 °F 30% 29.95 in 10.0 mi SSW 9.2 mph - N/A   Scattered Clouds
6:35 PM 37.4 °F 30.8 °F 10.4 °F 33% 29.96 in 10.0 mi SSW 9.2 mph - N/A   Scattered Clouds
6:55 PM 37.4 °F 31.4 °F 10.4 °F 33% 29.96 in 10.0 mi SSW 8.1 mph - N/A   Mostly Cloudy
7:15 PM 37.4 °F 31.4 °F 12.2 °F 36% 29.96 in 10.0 mi SSW 8.1 mph - N/A   Scattered Clouds
7:35 PM 37.4 °F 32.1 °F 10.4 °F 33% 29.97 in 10.0 mi SSW 6.9 mph - N/A   Clear
7:55 PM 37.4 °F 32.8 °F 12.2 °F 36% 29.97 in 10.0 mi South 5.8 mph - N/A   Clear
8:15 PM 37.4 °F 32.8 °F 12.2 °F 36% 29.98 in 10.0 mi SSW 5.8 mph - N/A   Clear
8:35 PM 37.4 °F 33.8 °F 12.2 °F 36% 29.99 in 10.0 mi SSW 4.6 mph - N/A   Clear
8:55 PM 35.6 °F 31.7 °F 15.8 °F 44% 29.99 in 10.0 mi South 4.6 mph - N/A   Clear
9:15 PM 35.6 °F 30.7 °F 15.8 °F 44% 29.99 in 10.0 mi South 5.8 mph - N/A   Clear
9:35 PM 35.6 °F 30.7 °F 15.8 °F 44% 29.99 in 10.0 mi South 5.8 mph - N/A   Clear
9:55 PM 35.6 °F 30.7 °F 15.8 °F 44% 30.00 in 10.0 mi South 5.8 mph - N/A   Clear
10:15 PM 35.6 °F 29.9 °F 15.8 °F 44% 30.00 in 10.0 mi South 6.9 mph - N/A   Clear
10:35 PM 35.6 °F 30.7 °F 17.6 °F 48% 30.00 in 10.0 mi South 5.8 mph - N/A   Scattered Clouds
10:55 PM 37.4 °F 32.8 °F 15.8 °F 41% 30.00 in 10.0 mi South 5.8 mph - N/A   Unknown
11:15 PM 35.6 °F 30.7 °F 17.6 °F 48% 30.00 in 10.0 mi South 5.8 mph - N/A   Unknown
11:35 PM 37.4 °F 32.8 °F 15.8 °F 41% 30.00 in 10.0 mi SSW 5.8 mph - N/A   Scattered Clouds
11:55 PM 37.4 °F 32.1 °F 15.8 °F 41% 30.01 in 10.0 mi SSW 6.9 mph - N/A   Mostly Cloudy